www.pogodaiklimat.ru

Погода и климат >> Архив погоды >> Россия >> Якутия >> Шелагонцы


ПОГОДА в Шелагонцах

  • Прогноз погоды в Шелагонцах
  • Монитор погоды в Шелагонцах
  • Климат города

АРХИВ ПОГОДЫ в Шелагонцах

Время (UTC), дата Ветер
(напр.,м/с)
 
Видим.   Явления Облачность Т
(С)
Тd
(С)
f
(%)
Тe
(С)
Тes
(С)
Комфортность P
(гПа)
Po
(гПа)
Тmin
(С)
Tmax
(С)
R
(мм)
R24
(мм)
S
(см)
09 14.10 СВ 1 500 м сильный снег 10/0
[As op]
-4.8 -5.4 96 -7 -7 1018.6 988.6
12 14.10 С 1 500 м сильный снег 10/0
[As op]
-5.9 -6.7 94 -8 -8 1020.3 990.0 -3.5 8
15 14.10 штиль 0 500 м снежные зёрна 10/0
[As op]
-6.8 -7.3 96 -8 -8 1020.9 990.6
18 14.10 штиль 0 500 м сильный снег 10/0
[As op]
-7.6 -7.8 98 -8 -8 1021.8 991.4
21 14.10 штиль 0 500 м сильный снег 10/0
[As op]
-6.5 -7.3 94 -7 -7 1022.4 992.0
00 15.10 штиль 0 2000 м сильный снег 10/0
[As op]
-5.9 -6.3 97 -7 -7 1023.9 993.5 -7.9 4 37
03 15.10 штиль 0 10 км слабый снег 10/4 600 м
[Frnb As op]
-4.4 -4.3 100 -6 -6 1024.7 994.5
06 15.10 С 3 50 км {снег} 10/10 600 м
[Frnb]
-3.2 -5.3 85 -8 -8 1025.9 995.8
09 15.10 штиль 0 50 км 10/10 1000 м
[Sc]
-3.9 -6.5 82 -5 -5 1027.9 997.6
12 15.10 СВ 1 50 км 10/10 1000 м
[Sc]
-4.9 -7.3 83 -7 -7 1029.2 998.8 -3.2 0.3
15 15.10 штиль 0 50 км 10/10 1000 м
[Sc]
-5.8 -7.3 89 -7 -7 1030.2 999.8
18 15.10 В 1 50 км 10/10 1000 м
[Sc]
-6.8 -8.4 88 -9 -9 1031.7 1001.0
21 15.10 штиль 0 20 км слабый снег 10/0
[Ac As]
-13.4 -14.7 90 -13 -13 1029.0 1000.5
00 16.10 В 1 50 км 10/0
[As op]
-9.3 -10.0 95 -12 -12 1033.9 1002.9 -9.4 30
03 16.10 В 1 50 км 10/0
[As op]
-9.4 -10.1 95 -12 -12 1034.1 1003.1
06 16.10 В 3 50 км 10/0
[As op]
-9.2 -9.5 98 -15 -15 1034.3 1003.2
09 16.10 штиль 0 50 км 10/0
[As op]
-9.5 -10.3 94 -10 -10 1034.3 1003.3
12 16.10 штиль 0 50 км 10/0
[As op]
-11.3 -11.3 100 -12 -12 1034.0 1002.8 -9.0
18 16.10 СВ 1 50 км 10/0
[As op]
-15.2 -15.8 95 -18 -18 1033.0 1001.3
21 16.10 В 1 10 км снег 8/0
[As op]
-15.4 -16.7 90 -18 -18 1031.5 999.9
00 17.10 штиль 0 50 км {снег} 10/0
[Ac As]
-21.6 -22.8 90 -22 -22 1031.4 998.9 -22.1 33
03 17.10 штиль 0 50 км 9/0
[Ac lent Ci fib]
-18.1 -19.3 90 -18 -18 1029.9 997.9
06 17.10 В 3 50 км 6/4
[Frnb Cs]
-9.1 -11.1 85 -15 -15 1026.9 996.1
09 17.10 В 1 50 км 9/0
[Cs]
-11.5 -13.5 85 -14 -14 1025.3 994.4
12 17.10 штиль 0 20 км слабый снег 10/0
[Cs]
-12.6 -13.9 90 -13 -13 1021.4 993.3 -9.0 0.0
18 17.10 В 3 20 км слабый снег 10/0
[Cs]
-13.6 -14.2 95 -20 -20 1023.2 992.0
21 17.10 В 3 50 км {снег} 8/0
[As trans]
-15.3 -16.6 90 -22 -22 1022.6 991.3
00 18.10 В 1 50 км {снег} 9/0
[Cs]
-19.6 -20.8 90 -23 -23 1023.3 991.3 -19.7 0.0 28
03 18.10 В 1 50 км 10/0
[Cs]
-17.0 -17.6 95 -20 -19 1023.3 991.6
06 18.10 Ю 1 50 км 10/0
[As op]
-14.2 -16.2 85 -17 -16 1022.6 991.4
09 18.10 штиль 0 10 км сильный снег 10/0
[As op]
-13.0 -15.1 84 -13 -13 1023.0 991.8
12 18.10 штиль 0 1000 м сильный снег 10/0
[As op]
-14.2 -15.5 90 -14 -14 1024.3 993.0 -12.6 0.7
15 18.10 В 3 1000 м сильный снег 10/0
[As op]
-13.9 -14.5 95 -20 -20 1024.8 993.5
18 18.10 штиль 0 20 км слабый снег 10/0
[As op]
-15.8 -16.4 95 -16 -16 1025.2 994.0
21 18.10 штиль 0 10 км слабый снег 10/0
[As op]
-15.4 -16.4 92 -15 -15 1025.9 994.8
00 19.10 штиль 0 20 км слабый снег 10/0
[As op]
-15.6 -16.9 90 -16 -16 1027.3 995.8 -15.6 0.2 35
03 19.10 штиль 0 20 км слабый снег 9/0
[Ac trans]
-14.8 -16.8 85 -15 -14 1028.3 996.8
06 19.10 штиль 0 50 км {снег} 9/0
[Ac lent]
-13.0 -15.0 85 -13 -13 1028.4 997.1
09 19.10 штиль 0 50 км 8/0
[Ac trans]
-12.0 -14.0 85 -12 -12 1028.7 997.5
12 19.10 штиль 0 50 км 9/0
[As trans]
-16.6 -17.9 90 -17 -17 1030.5 998.8 -11.9 0.0
15 19.10 штиль 0 20 км слабый снег 8/0
[As op]
-15.8 -17.1 90 -16 -16 1031.0 999.3
18 19.10 штиль 0 20 км слабый снег 6/0
[As op]
-15.0 -16.3 90 -15 -15 1031.0 999.4
21 19.10 В 1 50 км {снег} 8/0
[As trans]
-15.3 -15.9 95 -18 -18 1031.1 999.5
00 20.10 В 1 50 км {снег} 8/0
[Ac trans]
-16.0 -16.6 95 -19 -19 1030.7 999.0 -16.7 0.0 30
03 20.10 В 3 50 км 8/0
[Ci]
-16.2 -17.2 92 -23 -23 1029.1 997.5
06 20.10 Ю 3 20 км слабый снег 10/0
[As op]
-9.4 -11.5 85 -15 -15 1026.0 995.2
09 20.10 ЮВ 1 1000 м сильный снег 10/0
[As op]
-8.5 -10.2 87 -11 -11 1024.2 993.6
15 20.10 В 3 50 км {снег} 8/0
[As trans]
-10.9 -12.9 85 -17 -17 1021.9 991.1
18 20.10 В 3 50 км {снег} 8/0
[As trans]
-11.6 -12.9 90 -18 -18 1020.9 990.1
21 20.10 В 1 20 км слабый снег 10/0
[As op]
-10.9 -12.2 90 -13 -13 1019.6 988.8
00 21.10 штиль 0 20 км слабый снег 10/0
[As op Cc]
-10.4 -11.3 93 -11 -11 1018.8 988.2 -11.7 0.5 32
03 21.10 ЮВ 3 50 км {снег} 10/0
[Ac trans Cc]
-9.1 -12.5 76 -15 -15 1018.0 987.5
06 21.10 В 3 20 км слабый снег 9/0
[As trans Cc]
-8.6 -11.9 77 -14 -14 1017.8 987.4

 

Местоположение метеостанции Шелагонцы (Якутия, Россия): широта 66.25 долгота 114.20 высота над уровнем моря 236 м.

В архиве по умолчанию представлена погода в Шелагонцах за последнюю неделю. Архивные данные за месяц целиком и за предыдущие месяцы, начиная с января 2011 года, Вы можете получить, выбрав интересующий диапазон дат из раскрывающегося списка и нажав кнопку "Ввод!".

Внимание! Время в таблицах - всемирное. Для получения местного времени необходимо прибавить поправку, которая в Шелагонцах равна 9 ч.

Смотрите также архив погоды в соседних городах и на ближайших метеорологических станциях:

Погода в Полярном (Якутия, Россия) (96 км)
Погода в Эйке (Якутия, Россия) (146 км)
Погода в Хабардино (Якутия, Россия) (200 км)
Погода в Чумпуруке (Якутия, Россия) (257 км)
Погода в Оленеке (Якутия, Россия) (262 км)
Погода в Ярольине (Якутия, Россия) (269 км)
Погода в Сухане (Якутия, Россия) (316 км)
Погода в Чернышевском (Якутия, Россия) (368 км)
Погода в Нюрбе (Якутия, Россия) (383 км)
Погода в Жиганске (Якутия, Россия) (407 км)

Пояснения к столбцам:

Ветер - указаны скорость ветра в м/с - средняя за 10 мин, порывы в срок и между сроками (в фигурных скобках) и направление, откуда дует ветер: С - северный, СВ - северо-восточный, В - восточный, ЮВ - юго-восточный, Ю - южный, ЮЗ - юго-западный, З - западный, СЗ - северо-западный.
Видимость - горизонтальная дальность видимости в метрах или километрах. При видимости от 1 до 10 км при отсутствии осадков обычно наблюдается дымка, при ухудшении видимости до 1 км и менее - туман. В сухую погоду видимость может ухудшаться дымом, пылью или мглою.
Явления - указаны атмосферные явления, наблюдавшиеся в срок или в последний час перед сроком; фигурными скобками обозначены явления, наблюдавшиеся между сроками (за 1-3 часа до срока); квадратными скобками обозначены град или гололедные отложения с указанием их диаметра в мм.
Облачность - указаны через наклонную черту общая и нижняя облачность в баллах и высота нижней границы облаков в метрах; квадратными скобками обозначены формы облаков: Ci - перистые, Cs - перисто-слоистые, Cc - перисто-кучевые, Ac - высококучевые, As - высокослоистые, Sc - слоисто-кучевые, Ns - слоисто-дождевые, Cu - кучевые, Cb - кучево-дождевые. Подробнее классификацию облаков см. в Атласе облаков (PDF).
T - Температура воздуха - температура, измеренная на высоте 2 м над землей.
Td - Температура точки росы - температура, при понижении до которой содержащийся в воздухе водяной пар достигнет насыщения.
f - Относительная влажность воздуха - влажноcть воздуха, измеренная на высоте 2 м над землей.
Te - Эффективная температура - температура, которую ощущает одетый по сезону человек в тени. Характеристика душности погоды. При расчете учитывается влияние влажности воздуха и скорости ветра на теплоощущения человека.
Tes - Эффективная температура на солнце - температура, которую ощущает человек, с поправкой на солнечный нагрев. Характеристика знойности погоды. Зависит от высоты солнца над горизонтом, облачности и скорости ветра. Ночью, в пасмурную погоду, а также при ветре 12 м/с и более поправка равна нулю.
P - Атмосферное давление - приведенное к уровню моря атмосферное давление.
Po - Атмосферное давление - измеренное на уровне метеостанции атмосферное давление.
Tmin - Минимальная температура - минимум температуры воздуха на высоте 2 м над землей.
Tmax - Максимальная температура - максимум температуры воздуха на высоте 2 м над землей.
R - Количество осадков - Количество выпавших осадков за период времени, мм. При наведении курсора мыши на число - период времени, за который выпало указанное количество осадков.
R24 - Количество осадков - Количество выпавших осадков за 24 часа, мм.
S - Снежный покров - Высота снежного покрова, см. При наведении курсора мыши на число - состояние снежного покрова и степень покрытия местности в баллах.